Overview Statistics Trail Chart Weather Telemetry Raw packets
 

This is the latest recevied weather packets stored in our database for station/object KF6RAL-6. If no packets are shown the sender has not sent any weather packets the latest 10 day(s).

<< 75 76 77 78 79 >>
Time Temp. Humidity Pressure Rain* Wind** Luminosity Snow
1787859792 28.89° C 44% 1017.4 hPa 0 mm - - -
1787859375 28.33° C 48% 1017.1 hPa 0 mm - - -
1787858950 28.33° C 50% 1017.1 hPa 0 mm - - -
1787858530 28.33° C 52% 1017.3 hPa 0 mm - - -
1787858108 28.33° C 52% 1017.3 hPa 0 mm - - -
1787857687 28.89° C 51% 1017.8 hPa 0 mm - - -
1787857266 28.89° C 50% 1018 hPa 0 mm - - -
1787856844 28.89° C 49% 1017.9 hPa 0 mm - - -
1787856011 29.44° C 46% 1017.9 hPa 0 mm - - -
1787855581 30° C 42% 1017.7 hPa 0 mm - - -
1787855160 30° C 37% 1017.6 hPa 0 mm - - -
1787854739 30° C 35% 1017.8 hPa 0 mm - - -
1787854318 30° C 38% 1017.8 hPa 0 mm - - -
1787853476 30° C 36% 1018.1 hPa 0 mm - - -
1787853056 28.89° C 35% 1018.2 hPa 0 mm - - -
1787852634 28.89° C 35% 1017.4 hPa 0 mm - - -
1787852213 28.33° C 38% 1017.7 hPa 0 mm - - -
1787851792 28.33° C 41% 1017.6 hPa 0 mm - - -
1787851371 28.33° C 41% 1017.9 hPa 0 mm - - -
1787850952 28.33° C 42% 1017.6 hPa 0 mm - - -
1787850530 28.33° C 44% 1017.8 hPa 0 mm - - -
1787850109 27.78° C 46% 1017.8 hPa 0 mm - - -
1787849687 27.78° C 46% 1018.1 hPa 0 mm - - -
1787849266 27.22° C 48% 1017.8 hPa 0 mm - - -
1787848846 27.22° C 54% 1017.7 hPa 0 mm - - -

* Rain latest hour (hover to see other rain measurements)
** Current wind speed in m/s (hover to see current wind gust speed)